Theta_e
281 281 280 280 279 279 279 278 278 278 278 277 276 276 276 275 275 275 275 275 274 274 274 274 273 273 273 273 273 273 273 273 272 272 272 272 272 272 272 272 272 272
281 280 280 279 279 279 278 278 278 277 277 277 276 275 275 275 275 275 274 274 274 274 274 274 273 273 273 273 272 272 272 272 272 272 272 272 272 272 272 272 271 271
280 279 279 279 278 278 278 277 277 277 276 276 276 275 275 275 275 274 274 274 274 274 273 273 273 273 272 272 272 272 272 272 272 272 272 272 272 272 271 271 271 271
280 279 279 278 278 278 277 277 276 276 276 276 275 275 275 274 274 274 274 274 273 273 273 272 272 272 272 272 271 272 272 272 272 272 272 272 271 271 271 271 271 271
279 278 278 278 278 277 277 277 276 276 276 275 275 275 274 274 274 274 274 273 273 273 272 272 272 272 271 271 271 271 271 272 272 272 272 272 271 271 271 271 271 271
279 278 278 277 277 277 276 276 276 276 276 275 275 274 274 274 274 273 273 273 272 272 272 272 272 271 271 271 271 271 271 271 271 271 271 271 271 271 271 271 271 271
278 278 277 277 276 276 276 276 276 276 275 275 274 274 274 273 273 273 273 272 272 272 272 272 271 271 271 271 271 271 271 271 271 271 271 272 272 272 271 271 271 271
278 277 277 276 276 276 276 276 275 275 275 274 274 274 273 273 273 272 272 272 272 272 272 271 271 271 271 270 270 271 271 271 271 271 272 272 272 272 272 271 271 271
277 277 276 275 275 275 275 275 275 275 274 274 274 273 273 272 272 272 272 272 272 272 272 271 271 271 270 270 270 270 270 271 271 271 271 272 272 272 272 271 271 271
277 276 275 275 275 275 275 275 275 275 274 274 273 273 273 272 272 272 272 272 272 272 271 271 271 271 270 270 270 270 270 270 271 271 271 271 272 272 271 271 271 271
277 276 275 275 275 275 275 275 275 274 274 273 273 273 273 273 272 272 272 272 272 272 271 271 271 271 271 270 270 270 270 270 270 270 271 271 271 271 271 271 271 271
277 276 275 275 275 274 275 275 274 274 273 273 273 273 273 272 272 272 272 272 272 272 271 271 271 271 271 270 270 270 270 270 270 270 271 271 271 271 271 271 271 271
276 275 274 274 274 274 274 274 274 274 273 273 273 273 272 272 272 272 272 272 272 272 271 271 271 271 271 270 270 269 269 270 270 270 271 271 271 271 271 271 271 271
275 274 274 274 274 274 274 274 274 273 273 273 273 272 272 272 272 272 272 272 272 271 271 271 271 271 271 270 270 269 269 269 270 270 270 271 271 271 271 271 271 271
275 274 274 273 274 274 274 274 273 273 273 273 272 272 272 272 272 272 272 272 272 271 271 271 271 271 271 270 269 269 269 269 269 270 270 271 271 271 272 272 272 272
274 273 273 273 274 274 273 273 273 273 273 272 272 272 272 272 272 272 272 272 271 271 271 271 271 271 270 270 269 269 269 269 270 270 271 271 272 272 272 272 272 272
273 273 273 273 274 273 273 273 273 272 272 272 272 272 272 272 272 272 272 271 271 271 271 271 271 271 270 270 269 269 269 268 269 270 270 271 271 272 272 272 271 271
273 273 273 273 273 273 273 272 272 272 272 272 272 272 272 272 272 272 272 271 271 271 271 271 271 271 270 270 270 269 269 268 268 269 269 270 270 271 271 271 271 270
273 273 273 273 273 273 272 272 272 272 272 272 272 272 272 272 272 272 271 271 271 271 271 271 271 271 270 270 270 269 269 269 269 269 270 270 270 270 270 270 270 269
272 273 273 273 272 272 272 272 271 272 271 271 271 271 272 272 271 271 271 271 271 271 271 272 272 271 270 270 270 270 269 269 269 270 270 270 270 270 270 270 269 269
272 273 273 273 272 271 271 271 271 271 271 271 271 271 271 271 271 271 271 271 271 271 271 272 272 271 270 270 270 270 269 269 270 270 270 270 270 270 270 270 270 269
272 273 272 272 272 271 271 271 271 271 271 271 271 271 271 271 271 271 271 271 271 271 271 272 272 271 270 270 270 270 269 269 270 270 270 270 270 270 270 270 270 270
273 273 272 272 271 271 271 271 271 271 271 271 271 271 271 271 271 271 271 271 271 271 271 272 272 272 271 270 270 270 269 269 269 270 270 270 270 270 271 271 270 270
273 272 272 271 271 271 271 271 271 271 271 271 271 271 271 271 271 271 271 271 271 271 271 271 272 272 271 270 270 270 269 269 269 269 270 270 270 270 271 270 270 270
272 271 271 271 271 270 270 271 271 271 271 271 271 271 271 271 271 271 271 271 271 271 271 271 272 272 271 270 270 270 270 269 269 269 270 270 270 270 270 270 270 270
271 271 271 270 270 270 270 271 271 271 271 271 271 270 271 271 271 270 271 271 271 271 271 271 271 271 271 271 270 270 270 270 270 270 270 270 270 270 270 270 270 269
Wind_Speed
6 6 7 7 8 8 9 9 10 11 11 12 12 12 12 12 13 14 16 17 18 19 19 19 18 17 17 16 16 16 16 17 17 18 18 18 19 20 20 21 21 22
6 7 8 8 8 9 10 10 10 11 11 12 11 12 12 13 13 15 16 17 18 19 20 20 19 18 18 17 17 16 17 17 17 18 19 19 20 21 21 22 22 23
7 8 8 9 9 10 10 10 11 11 11 12 12 12 12 13 14 15 16 18 19 20 21 21 20 19 19 18 17 17 17 18 19 19 19 20 21 22 23 23 24 24
8 8 9 9 9 10 11 11 12 12 13 13 13 13 13 13 14 15 17 18 20 20 21 21 21 20 19 19 19 19 19 19 20 21 21 21 22 24 24 25 25 25
8 9 9 10 10 11 11 11 12 13 14 14 14 13 13 13 14 15 17 18 19 20 21 21 21 21 21 21 20 20 20 21 22 23 23 23 23 24 25 26 26 26
9 10 10 10 11 11 12 12 13 14 15 15 15 14 14 14 15 15 16 18 19 20 21 21 22 22 22 22 22 22 22 22 23 23 24 24 24 24 25 26 27 26
10 10 11 11 11 11 12 13 14 15 15 16 15 15 15 15 15 16 17 18 19 21 22 23 23 23 24 24 24 23 23 23 24 24 24 24 25 25 25 27 28 27
10 11 11 11 11 12 13 14 15 15 16 16 15 15 16 16 16 16 18 19 20 22 23 24 24 24 25 25 25 25 25 24 25 25 26 26 26 27 27 28 29 29
11 11 11 11 11 13 14 15 15 15 16 16 16 16 16 16 17 18 19 20 22 23 24 25 26 26 26 26 26 27 26 25 26 26 27 28 28 29 29 30 31 31
12 12 11 11 12 13 15 15 15 16 16 16 16 17 17 17 18 19 20 22 23 24 25 26 26 26 26 26 26 27 27 27 27 27 28 29 30 30 32 32 33 33
12 12 12 12 13 15 16 16 16 17 17 17 17 17 18 18 19 20 21 22 24 25 26 26 27 27 27 27 26 27 28 28 28 29 29 30 31 32 33 34 35 35
13 13 13 13 15 16 16 16 17 17 17 17 18 18 19 19 20 21 22 23 25 26 27 27 27 28 28 27 27 27 28 28 29 30 30 31 32 33 34 35 35 36
13 13 13 14 16 16 16 17 17 17 17 18 19 19 20 20 21 22 23 24 26 26 27 28 28 28 28 27 27 28 28 29 29 30 32 33 34 34 35 36 36 36
14 14 14 15 16 16 17 18 18 18 18 18 20 20 21 21 22 23 24 25 27 28 28 28 28 28 28 27 28 29 29 30 31 31 33 34 35 36 36 36 37 37
14 14 15 16 16 17 18 19 19 19 19 19 20 21 22 22 23 25 26 27 28 29 29 29 29 28 27 28 28 29 30 30 31 32 34 35 36 36 37 37 37 38
15 15 16 16 17 18 18 19 19 19 20 21 21 22 22 23 25 26 27 28 29 30 29 28 28 28 27 27 28 30 31 32 33 33 35 37 38 38 39 39 39 39
16 16 17 17 18 19 19 20 20 20 21 22 22 23 24 24 26 27 28 29 30 30 29 28 28 27 27 27 27 29 31 32 34 36 37 38 39 40 41 41 41 41
17 17 18 18 19 20 20 20 20 20 21 23 23 24 25 25 27 28 29 30 31 30 29 27 27 27 27 27 27 27 28 31 33 36 37 39 40 40 41 42 42 43
17 18 18 19 19 20 20 20 21 21 22 24 24 25 26 27 28 29 30 30 30 30 29 27 26 26 26 26 27 27 28 30 33 35 37 39 40 40 41 42 43 43
18 18 19 19 20 20 20 20 21 22 23 24 25 26 27 28 29 30 30 30 29 29 28 27 26 26 26 26 27 28 29 31 34 36 38 39 40 40 41 42 42 43
19 19 19 20 20 20 21 21 22 23 24 25 26 27 28 29 30 30 30 29 29 29 29 27 26 26 27 27 28 30 31 32 35 37 39 40 41 41 41 42 42 43
19 20 20 20 20 21 21 22 23 24 25 26 27 28 29 30 30 30 30 29 28 29 30 28 26 27 28 28 29 31 32 34 37 39 41 42 42 41 41 42 43 43
20 20 20 21 21 22 22 23 24 25 26 27 29 30 30 30 30 30 29 29 29 28 30 30 27 27 29 30 30 32 34 36 38 40 42 42 42 42 42 43 44 44
21 21 21 21 22 23 23 24 25 26 27 28 30 31 30 30 30 30 29 28 29 29 30 31 30 28 30 32 31 32 34 37 39 41 42 43 43 43 44 44 45 44
21 21 22 22 23 23 24 24 25 26 27 29 30 31 31 30 30 31 29 28 29 30 31 32 32 31 31 32 32 32 34 37 39 41 42 44 44 45 46 46 45 45
21 21 22 23 24 24 24 24 26 27 28 29 30 30 30 31 30 31 31 29 29 31 32 33 34 33 32 32 32 33 34 36 39 41 43 45 45 46 47 47 45 44
Wind_Direction
287 297 304 307 311 313 316 317 314 311 310 312 315 317 319 322 325 331 334 334 335 335 335 334 332 330 328 327 327 328 329 330 329 329 332 331 328 329 329 328 330 330
286 295 299 302 307 310 312 312 308 307 309 311 312 309 312 317 323 329 330 331 333 333 333 333 331 329 326 325 325 326 327 326 327 327 327 327 325 325 327 327 329 329
283 290 295 301 306 309 310 309 307 309 309 307 304 303 308 315 321 324 326 329 332 332 333 332 330 327 325 324 325 326 326 325 325 324 324 325 324 325 326 325 326 326
282 290 296 301 305 306 307 309 310 311 307 303 301 302 306 310 315 320 324 328 330 331 331 329 327 325 323 323 324 325 326 325 323 322 323 325 325 324 324 322 322 322
285 293 297 300 303 305 307 311 312 308 302 299 298 299 300 305 311 317 322 325 327 328 328 326 325 324 322 322 324 324 324 323 322 321 322 324 323 321 320 318 318 319
289 294 297 300 303 307 311 313 308 302 298 296 295 295 298 302 307 313 318 322 325 326 326 325 324 323 322 321 322 323 322 321 320 319 319 320 319 317 316 315 315 316
289 295 298 301 305 308 310 307 301 296 293 291 293 294 296 298 301 308 314 318 323 324 325 325 324 323 322 320 320 320 320 319 317 316 316 316 315 314 314 313 313 314
290 296 298 301 306 307 304 300 295 291 289 290 293 293 292 294 297 305 311 316 322 325 326 326 324 322 320 318 318 318 317 317 315 314 314 314 314 314 313 312 312 313
291 294 298 301 302 301 298 294 289 288 289 292 293 292 290 292 296 304 310 317 323 326 326 325 323 320 318 316 316 315 314 314 313 313 313 314 314 314 313 312 312 313
290 293 297 299 299 297 295 292 291 291 292 293 294 293 292 293 298 305 311 318 323 325 324 323 320 317 315 314 314 312 312 312 312 312 312 313 313 313 313 312 311 313
292 296 299 300 299 297 295 295 294 293 292 294 296 296 296 298 301 306 311 316 320 322 321 320 317 314 312 312 312 310 310 310 310 310 311 312 311 311 311 311 311 313
294 297 301 300 297 295 294 294 293 292 294 298 300 300 301 302 304 306 310 314 317 318 318 317 314 312 311 311 311 309 308 309 309 309 310 310 309 310 310 310 311 312
294 298 300 296 293 293 294 294 294 296 300 303 304 304 304 304 305 306 309 312 314 315 315 314 313 311 311 311 310 309 308 307 308 309 309 308 308 308 309 309 310 311
295 298 295 292 292 296 298 298 299 301 304 305 305 305 305 305 306 306 308 311 312 313 314 313 312 311 311 311 310 309 308 307 308 309 308 307 306 307 308 308 309 309
295 294 292 292 296 300 300 299 300 302 305 306 305 305 306 306 306 306 309 310 311 312 313 312 311 311 311 311 310 309 307 306 306 306 306 305 305 306 306 307 308 309
294 293 293 297 301 302 300 299 301 304 306 305 304 305 306 306 306 307 308 309 310 311 311 311 311 310 310 310 310 309 308 306 306 306 306 306 307 307 308 309 310 311
296 296 298 303 304 301 299 300 302 304 304 303 303 305 305 305 306 306 307 308 309 310 311 310 309 309 309 309 309 309 309 309 308 308 308 307 307 309 310 311 311 312
296 297 300 303 301 299 299 300 302 302 302 302 302 304 304 304 305 306 307 308 309 309 309 309 308 308 309 309 309 308 307 306 305 305 305 305 306 307 309 310 311 312
294 296 299 300 298 298 298 299 300 300 300 301 302 303 303 304 305 305 306 307 307 307 307 307 307 308 309 309 309 307 305 302 301 302 302 303 305 306 308 309 310 310
293 295 297 298 297 297 298 298 299 300 300 300 301 301 302 303 304 305 306 306 306 305 305 307 308 309 310 310 308 306 305 302 301 302 302 303 304 306 307 309 309 309
292 295 297 298 298 298 298 298 298 299 299 299 299 300 301 303 303 304 305 305 306 306 306 308 310 311 311 311 309 308 306 304 303 303 302 302 304 307 308 309 309 309
293 296 297 298 298 298 297 297 298 298 298 298 298 299 301 302 303 304 305 306 306 307 307 309 312 312 311 312 311 309 307 305 304 303 303 303 306 308 309 309 309 309
292 295 298 298 298 297 296 296 296 297 298 298 299 300 301 303 304 304 306 307 307 308 308 309 311 313 312 312 312 311 308 306 304 303 303 305 307 309 309 309 309 309
294 298 300 300 298 296 295 295 296 296 298 298 298 300 303 304 304 304 305 306 307 309 310 310 312 314 313 312 312 310 307 304 304 304 305 307 308 309 309 308 308 309
298 301 300 298 295 293 293 294 294 295 296 297 298 301 304 305 305 304 305 307 308 309 310 310 312 313 312 311 310 308 306 305 305 306 307 308 309 309 309 309 310 311
299 298 296 293 291 290 290 291 292 293 295 297 299 302 304 304 304 305 306 309 310 309 309 309 309 310 310 309 308 307 307 306 306 308 309 309 309 309 309 310 311 312